Location: Gellin
(53.4498°N, 14.3207°E)
Time: 01:57:09
(UTC+00:00)

Cosmos 1674 Rocket - Pass Details

Date: 03 March 2021
Orbit: 602 x 630 km, 82.5° (Epoch: 11 April)

Event Time Altitude Azimuth Distance (km) Brightness Sun altitude
Rises 19:02:12 0° 353° (N) 2,876 7.3 -21.0°
Reaches altitude 10° 19:04:33 10° 1° (N) 1,965 6.3 -21.4°
Enters shadow 19:07:39 34° 38° (NE) 1,000 4.4 -21.8°
